DW8835 La Escala ES current weather conditions

sailwx.info

Wind from 189 at 1 knots gusting 4

Air temperature 17.8° C
Dewpoint 13.3° C

Last reported at 2014-Oct-26 08:46 UTC.
Time now 2014-Oct-26 09:33 UTC

Location: N 42°07' E 003°08'.
View on Google Maps.

See reports from other nearby stations

  
Tides and Currents Weather Stations Pressure Air Temp Water Temp Dewpoint Dewpoint Depression Visibility Wind Speed Wind Dir Waves Ship Positions
date/time (UTC)wind fromknots sea level pressurealtimeterstation pressurevisibilityair tempwater tempwave heightnotes
2014-Oct-26 08:46 189 1 gusting 4 17.8
2014-Oct-26 08:36 173 1 gusting 3 17.2
2014-Oct-26 08:26 186 0 gusting 4 16.7
2014-Oct-26 08:16 212 0 gusting 4 16.1
2014-Oct-26 08:06 183 3 gusting 5 15.6
2014-Oct-26 07:57 187 2 gusting 4 15.6
2014-Oct-26 07:46 185 1 gusting 4 15.0
2014-Oct-26 07:36 205 1 gusting 3 14.4
2014-Oct-26 07:27 175 1 gusting 3 14.4
2014-Oct-26 07:16 223 0 gusting 2 14.4
2014-Oct-26 07:06 178 14.4
2014-Oct-26 06:56 177 13.9
2014-Oct-26 06:46 150 2 gusting 3 13.9
2014-Oct-26 06:36 141 13.9
2014-Oct-26 06:26 141 14.4
2014-Oct-26 06:16 140 14.4
2014-Oct-26 06:06 107 1 gusting 2 14.4
2014-Oct-26 05:56 072 13.9
2014-Oct-26 05:46 073 13.9
2014-Oct-26 05:36 073 13.9
2014-Oct-26 05:27 104 2 gusting 4 13.9
2014-Oct-26 05:06 195 13.9
2014-Oct-26 04:56 196 0 gusting 2 13.9
2014-Oct-26 04:46 197 0 gusting 3 13.9
2014-Oct-26 04:36 237 14.4
2014-Oct-26 04:26 238 14.4
2014-Oct-26 04:16 185 14.4
2014-Oct-26 04:06 185 0 gusting 2 14.4
2014-Oct-26 03:56 165 1 gusting 2 14.4
2014-Oct-26 03:46 171 0 gusting 3 14.4
2014-Oct-26 03:36 196 0 gusting 2 14.4
2014-Oct-26 03:26 205 14.4
2014-Oct-26 03:16 182 1 gusting 3 14.4
2014-Oct-26 03:06 175 3 gusting 4 14.4
2014-Oct-26 02:56 178 2 gusting 3 15.0
2014-Oct-26 02:46 192 1 gusting 4 15.0
2014-Oct-26 02:36 175 0 gusting 2 15.0
2014-Oct-26 02:26 172 0 gusting 2 15.6
2014-Oct-26 02:16 200 15.6
2014-Oct-26 02:06 193 0 gusting 3 15.6
2014-Oct-26 01:56 177 1 gusting 2 15.6
2014-Oct-26 01:46 173 15.6
2014-Oct-26 01:36 173 0 gusting 2 15.6
2014-Oct-26 01:26 173 0 gusting 3 15.0
2014-Oct-26 01:16 184 0 gusting 2 15.0
2014-Oct-26 01:06 172 0 gusting 2 15.0
2014-Oct-26 00:56 172 0 gusting 3 15.6
2014-Oct-26 00:46 183 2 gusting 4 15.6
2014-Oct-26 00:36 175 1 gusting 4 15.6
2014-Oct-26 00:26 223 0 gusting 2 15.6
2014-Oct-26 00:16 168 0 gusting 2 15.6
2014-Oct-26 00:06 170 0 gusting 2 15.6
2014-Oct-25 23:56 173 2 gusting 3 15.6
2014-Oct-25 23:46 186 1 gusting 4 15.6
2014-Oct-25 23:36 159 0 gusting 3 15.6
2014-Oct-25 23:26 205 1 gusting 4 15.6
2014-Oct-25 23:16 202 1 gusting 2 16.1
2014-Oct-25 23:06 171 0 gusting 3 16.1
2014-Oct-25 22:56 167 2 gusting 5 16.1
2014-Oct-25 22:46 168 0 gusting 4 16.7
2014-Oct-25 22:36 177 16.7
2014-Oct-25 22:26 157 17.2
2014-Oct-25 22:16 157 17.2
2014-Oct-25 22:06 157 17.2
2014-Oct-25 21:56 156 17.2
2014-Oct-25 21:46 150 1 gusting 3 17.2
2014-Oct-25 21:36 067 17.2
2014-Oct-25 21:26 067 17.2
2014-Oct-25 21:16 360 0 gusting 2 17.8
2014-Oct-25 21:06 360 17.8
2014-Oct-25 20:56 360 17.8
2014-Oct-25 20:46 360 17.8
2014-Oct-25 20:36 360 17.8
2014-Oct-25 20:26 360 17.8
2014-Oct-25 20:16 360 0 gusting 1 17.8
2014-Oct-25 20:06 360 17.8
2014-Oct-25 19:56 360 2 gusting 3 18.3
2014-Oct-25 19:46 360 2 gusting 4 18.3
2014-Oct-25 19:36 330 3 gusting 5 18.3
2014-Oct-25 19:26 319 3 gusting 5 18.9
2014-Oct-25 19:16 276 0 gusting 2 18.9
2014-Oct-25 19:06 231 19.4
2014-Oct-25 18:56 230 0 gusting 3 19.4
2014-Oct-25 18:46 229 0 gusting 2 20.0
2014-Oct-25 18:36 222 0 gusting 3 20.0
2014-Oct-25 18:26 219 20.0
2014-Oct-25 18:16 219 1 gusting 2 20.6
2014-Oct-25 18:06 194 0 gusting 2 20.6
2014-Oct-25 17:56 192 0 gusting 4 20.6
2014-Oct-25 17:46 196 1 gusting 3 21.1
2014-Oct-25 17:36 192 0 gusting 3 21.1
2014-Oct-25 17:26 163 1 gusting 3 21.1
2014-Oct-25 17:16 159 2 gusting 4 21.7
2014-Oct-25 17:06 178 1 gusting 2 21.7
2014-Oct-25 16:56 163 1 gusting 6 22.2
2014-Oct-25 16:46 161 2 gusting 6 22.2
2014-Oct-25 16:36 145 2 gusting 4 22.2
2014-Oct-25 16:26 123 2 gusting 6 22.2
2014-Oct-25 16:16 138 0 gusting 2 22.8
2014-Oct-25 16:06 132 0 gusting 4 22.8
2014-Oct-25 15:56 132 2 gusting 6 22.8
2014-Oct-25 15:46 093 3 gusting 6 22.8
2014-Oct-25 15:36 113 3 gusting 7 22.8
2014-Oct-25 15:26 112 3 gusting 6 23.3
2014-Oct-25 15:16 113 3 gusting 6 23.9
2014-Oct-25 15:06 110 1 gusting 5 23.9
2014-Oct-25 14:56 117 4 gusting 7 23.9
2014-Oct-25 14:46 122 2 gusting 6 24.4
2014-Oct-25 14:36 105 2 gusting 4 24.4
2014-Oct-25 14:26 083 2 gusting 6 24.4
2014-Oct-25 14:16 123 1 gusting 5 24.4
2014-Oct-25 14:06 114 3 gusting 6 23.9
2014-Oct-25 13:56 092 1 gusting 5 23.9
2014-Oct-25 13:46 120 4 gusting 6 23.9
2014-Oct-25 13:36 096 3 gusting 6 23.9
2014-Oct-25 13:26 116 3 gusting 6 23.9
2014-Oct-25 13:16 126 1 gusting 5 24.4
2014-Oct-25 13:06 109 5 gusting 6 24.4
2014-Oct-25 12:56 118 2 gusting 6 24.4
2014-Oct-25 12:46 120 2 gusting 6 23.9
2014-Oct-25 12:36 112 1 gusting 7 23.9
2014-Oct-25 12:26 122 1 gusting 6 23.9
2014-Oct-25 12:16 084 3 gusting 6 24.4
2014-Oct-25 12:06 117 4 gusting 6 23.9
2014-Oct-25 11:56 100 3 gusting 6 24.4
2014-Oct-25 11:46 074 1 gusting 3 24.4
2014-Oct-25 11:36 117 0 gusting 2 24.4
2014-Oct-25 11:26 139 23.9
2014-Oct-25 11:16 116 2 gusting 4 23.3
2014-Oct-25 11:06 087 1 gusting 4 23.3
2014-Oct-25 10:56 093 1 gusting 4 23.3
2014-Oct-25 10:46 075 0 gusting 4 23.9
2014-Oct-25 10:36 086 1 gusting 4 23.3
2014-Oct-25 10:26 177 23.9
2014-Oct-25 10:16 178 1 gusting 3 23.9
2014-Oct-25 10:06 169 0 gusting 4 23.3
2014-Oct-25 09:56 196 0 gusting 3 23.3
2014-Oct-25 09:46 233 1 gusting 4 22.8
2014-Oct-25 09:36 272 3 gusting 4 22.2
2014-Oct-25 09:26 251 21.7
2014-Oct-25 09:16 221 1 gusting 2 21.1
2014-Oct-25 09:06 184 0 gusting 0 20.6
2014-Oct-25 08:56 201 20.0
2014-Oct-25 08:46 201 0 gusting 2 19.4
2014-Oct-25 08:36 207 19.4
2014-Oct-25 08:26 207 18.3
2014-Oct-25 08:16 205 17.8
2014-Oct-25 08:06 201 16.7
2014-Oct-25 07:56 205 16.1
2014-Oct-25 07:46 167 16.1
2014-Oct-25 07:36 167 1 gusting 5 15.6
2014-Oct-25 07:26 178 0 gusting 3 15.6
2014-Oct-25 07:16 159 1 gusting 3 15.0
2014-Oct-25 07:06 172 1 gusting 4 15.0
2014-Oct-25 06:56 173 3 gusting 6 14.4
2014-Oct-25 06:46 153 3 gusting 6 14.4
2014-Oct-25 06:36 175 3 gusting 5 14.4
2014-Oct-25 06:26 199 4 gusting 7 14.4
2014-Oct-25 06:16 187 3 gusting 5 14.4
2014-Oct-25 06:06 173 1 gusting 6 14.4
2014-Oct-25 05:56 217 4 gusting 6 14.4
2014-Oct-25 05:46 184 4 gusting 6 15.0
2014-Oct-25 05:36 195 2 gusting 6 15.0
2014-Oct-25 05:26 188 2 gusting 6 15.0
2014-Oct-25 05:16 166 0 gusting 4 15.0
2014-Oct-25 05:06 173 1 gusting 3 15.0
2014-Oct-25 04:56 185 0 gusting 3 15.0
2014-Oct-25 04:46 168 3 gusting 6 15.0
2014-Oct-25 04:36 181 1 gusting 4 15.0
2014-Oct-25 04:26 192 3 gusting 6 15.0
2014-Oct-25 04:16 187 4 gusting 6 15.0
2014-Oct-25 04:06 176 1 gusting 5 15.0
2014-Oct-25 03:56 184 1 gusting 5 15.0
2014-Oct-25 03:46 182 0 gusting 3 15.0
2014-Oct-25 03:36 185 3 gusting 6 15.0
2014-Oct-25 03:26 170 2 gusting 5 15.0
2014-Oct-25 03:16 207 2 gusting 5 15.0
2014-Oct-25 03:06 217 3 gusting 5 15.0
2014-Oct-25 02:56 167 2 gusting 4 15.0
2014-Oct-25 02:46 184 1 gusting 6 15.0
2014-Oct-25 02:36 179 3 gusting 6 15.0
2014-Oct-25 02:26 171 1 gusting 6 15.6
2014-Oct-25 02:16 189 1 gusting 6 15.6
2014-Oct-25 02:06 166 3 gusting 6 15.6
2014-Oct-25 01:56 167 2 gusting 6 15.6
2014-Oct-25 01:46 175 3 gusting 8 15.6
2014-Oct-25 01:36 173 4 gusting 6 15.6
2014-Oct-25 01:26 161 3 gusting 5 15.6
2014-Oct-25 01:16 180 3 gusting 6 15.6
2014-Oct-25 01:06 192 2 gusting 6 15.6
2014-Oct-25 00:56 178 3 gusting 6 15.6
2014-Oct-25 00:46 175 2 gusting 5 15.6
2014-Oct-25 00:36 179 4 gusting 6 15.6
2014-Oct-25 00:26 186 2 gusting 6 15.6
2014-Oct-25 00:16 179 2 gusting 6 15.6
2014-Oct-25 00:06 171 4 gusting 6 15.6
2014-Oct-24 23:56 180 2 gusting 6 15.6
2014-Oct-24 23:46 195 3 gusting 6 15.6
2014-Oct-24 23:36 187 1 gusting 5 15.6
2014-Oct-24 23:26 161 2 gusting 6 16.1
2014-Oct-24 23:16 179 2 gusting 6 16.1
2014-Oct-24 23:06 196 2 gusting 4 16.1
2014-Oct-24 22:56 174 2 gusting 4 16.1
2014-Oct-24 22:46 169 2 gusting 5 16.1
2014-Oct-24 22:36 180 1 gusting 4 16.1
2014-Oct-24 22:26 193 0 gusting 3 16.1
2014-Oct-24 22:16 196 2 gusting 5 16.7
2014-Oct-24 22:06 184 2 gusting 5 16.7
2014-Oct-24 21:56 172 3 gusting 6 16.7
2014-Oct-24 21:46 161 0 gusting 2 16.7
2014-Oct-24 21:36 212 2 gusting 6 17.2
2014-Oct-24 21:26 181 1 gusting 3 17.2
2014-Oct-24 21:16 196 17.2
2014-Oct-24 21:06 189 0 gusting 2 17.2
2014-Oct-24 20:56 188 2 gusting 4 17.2
2014-Oct-24 20:46 205 2 gusting 4 17.2
2014-Oct-24 20:36 090 0 gusting 2 17.2
2014-Oct-24 20:26 360 17.2
2014-Oct-24 20:06 313 0 gusting 2 17.8
2014-Oct-24 19:56 164 18.3
2014-Oct-24 19:46 275 0 gusting 3 18.3
2014-Oct-24 19:36 277 0 gusting 3 18.3
2014-Oct-24 19:26 279 18.3
2014-Oct-24 19:16 279 0 gusting 2 18.3
2014-Oct-24 19:06 211 3 gusting 6 18.9
2014-Oct-24 18:56 349 0 gusting 3 18.9
2014-Oct-24 18:46 355 3 gusting 4 19.4
2014-Oct-24 18:36 309 19.4
2014-Oct-24 18:26 309 20.0
2014-Oct-24 18:16 309 20.0
2014-Oct-24 18:06 309 20.6
2014-Oct-24 17:56 309 20.6
2014-Oct-24 17:46 309 0 gusting 2 21.1
2014-Oct-24 17:36 310 1 gusting 4 21.1
2014-Oct-24 17:26 244 0 gusting 3 21.7
2014-Oct-24 17:16 171 22.2
2014-Oct-24 17:06 169 22.8
2014-Oct-24 16:56 157 0 gusting 3 22.8
2014-Oct-24 16:46 150 23.3
2014-Oct-24 16:36 143 2 gusting 4 23.3
2014-Oct-24 16:26 146 2 gusting 6 23.3
2014-Oct-24 16:16 138 2 gusting 5 23.9
2014-Oct-24 16:06 117 23.9
2014-Oct-24 15:56 134 3 gusting 6 24.4
2014-Oct-24 15:46 109 24.4
2014-Oct-24 15:36 165 1 gusting 6 24.4
2014-Oct-24 15:26 101 1 gusting 5 25.0
2014-Oct-24 15:16 126 1 gusting 5 25.0
2014-Oct-24 15:06 115 2 gusting 6 25.0
2014-Oct-24 14:56 121 1 gusting 6 25.6
2014-Oct-24 14:46 117 1 gusting 6 25.6
2014-Oct-24 14:16 098 2 gusting 6 25.6
2014-Oct-24 14:06 123 3 gusting 6 25.6
2014-Oct-24 13:56 087 3 gusting 6 26.1
2014-Oct-24 13:46 091 3 gusting 8 26.1
2014-Oct-24 13:36 081 1 gusting 5 26.7
2014-Oct-24 13:26 044 2 gusting 5 26.7
2014-Oct-24 13:16 115 2 gusting 4 26.1
2014-Oct-24 13:06 085 0 gusting 6 25.6
2014-Oct-24 12:56 071 3 gusting 6 25.6
2014-Oct-24 12:46 119 1 gusting 6 25.6
2014-Oct-24 12:36 088 0 gusting 5 25.6
2014-Oct-24 12:26 092 0 gusting 6 25.6
2014-Oct-24 12:16 103 0 gusting 4 25.6
2014-Oct-24 12:06 080 1 gusting 5 26.1
2014-Oct-24 11:56 075 3 gusting 7 26.7
2014-Oct-24 11:46 306 5 gusting 8 26.7
2014-Oct-24 11:36 350 1 gusting 5 26.1
2014-Oct-24 11:26 338 3 gusting 6 26.1
2014-Oct-24 11:16 018 0 gusting 2 25.6
2014-Oct-24 11:06 057 1 gusting 6 25.6
2014-Oct-24 10:56 292 25.0
2014-Oct-24 10:46 298 0 gusting 5 24.4
2014-Oct-24 10:36 252 3 gusting 6 23.9
2014-Oct-24 10:26 237 1 gusting 6 23.9
2014-Oct-24 10:16 177 0 gusting 6 23.3
2014-Oct-24 10:06 169 1 gusting 5 23.3
2014-Oct-24 09:56 248 2 gusting 5 22.2
2014-Oct-24 09:46 180 4 gusting 7 22.2
2014-Oct-24 09:36 288 1 gusting 6 21.7
2014-Oct-24 09:26 297 1 gusting 6 21.7
2014-Oct-24 09:16 163 2 gusting 5 21.1
2014-Oct-24 09:06 257 0 gusting 6 20.6